Regional Weather Roundup
Issued by NWS Kansas City/Pleasant Hill, MO

Home | Current Version | Previous Version | Graphics & Text | Print | Product List | Glossary Off
Versions: 1 2 3 4 5 6 7 8 9 10 11 12 13 14 15 16 17 18 19 20 21 22 23 24 25 26 27 28 29 30 31 32 33 34 35 36 37 38 39 40 41 42 43 44 45 46 47 48 49 50

000
ASUS43 KEAX 220610
RWREAX

WEATHER ROUNDUP FOR EASTERN KANSAS AND NORTHWEST MISSOURI
NATIONAL WEATHER SERVICE KANSAS CITY/PLEASANT HILL MO
1200 AM CST MON DEC 22 2014

KSZ040-057-103>105-MOZ028-029-037-043-220700-
...KANSAS CITY METROPOLITAN AREA...

CITY           SKY/WX    TMP DP  RH WIND       PRES   REMARKS
K.C. INTL      DRIZZLE   42  39  89 S14       29.73F WCI  35
6HR MIN TEMP:  42; 6HR MAX TEMP:  44; 6HR PCP: TRACE;

K.C. DOWNTOWN  CLOUDY    44  37  76 S10       29.75F
6HR MIN TEMP:  44; 6HR MAX TEMP:  46;

LEES SUMMIT    CLOUDY    42  37  82 SE10      29.76F
6HR MIN TEMP:  42; 6HR MAX TEMP:  43; 6HR PCP: TRACE;

OLATHE - IXD   CLOUDY    42  38  85 SE13      29.74F
6HR MIN TEMP:  42; 6HR MAX TEMP:  43; 6HR PCP: TRACE;

OLATHE - OJC   CLOUDY    42  38  85 SE12      29.73F
6HR MIN TEMP:  42; 6HR MAX TEMP:  43;

LAWRENCE       CLOUDY    43  39  86 SE13      29.72F

$$

MOZ001>008-011>017-020>025-030>033-038>040-044>046-053-054-220700-
...NORTHERN AND CENTRAL MISSOURI...

CITY           SKY/WX    TMP DP  RH WIND       PRES   REMARKS
ST. JOSEPH     CLOUDY    44  39  82 SE13      29.73F
6HR MIN TEMP:  43; 6HR MAX TEMP:  45; 6HR PCP: TRACE;

MOSBY          DRIZZLE   41  37  87 SE7       29.76F
WARRENSBURG    CLOUDY    41  36  81 SE12      29.79F WCI  34
WHITEMAN AFB   CLOUDY    43  36  76 S9        29.79F
6HR MIN TEMP:  42; 6HR MAX TEMP:  43;

CLINTON        CLOUDY    43  37  81 SE7       29.80F
SEDALIA        CLOUDY    44  35  70 SE12      29.82F
6HR MIN TEMP:  43; 6HR MAX TEMP:  44;

WARSAW         NOT AVBL
MARSHALL       CLOUDY    43  39  87 SE8       29.83F
CHILLICOTHE      N/A     42  38  85 SE8       29.81F
6HR MIN TEMP:  42; 6HR MAX TEMP:  43; 6HR PCP:  0.02;

MOBERLY        CLOUDY    41  32  70 SE12      29.85F WCI  34
KIRKSVILLE     CLOUDY    39  37  92 SE10      29.84S WCI  32
6HR MIN TEMP:  39; 6HR MAX TEMP:  42; 6HR PCP: TRACE;


$$

MOZ041-047>049-056>058-063>065-088>090-097-220700-
...EASTERN AND SOUTHERN MISSOURI...

CITY           SKY/WX    TMP DP  RH WIND       PRES   REMARKS
ST. LOUIS INTL CLOUDY    43  31  62 SE10      29.93F
6HR MIN TEMP:  43; 6HR MAX TEMP:  44; 6HR PCP: TRACE;

SPIRIT OF STL  CLOUDY    42  33  70 SE5       29.91F
COLUMBIA       CLOUDY    41  34  76 SE12      29.85F WCI  34
JEFFERSON CITY CLOUDY    43  34  70 SE8       29.87F
MEXICO         CLOUDY    41  37  87 SE10      29.87  WCI  35
HANNIBAL       CLOUDY    41  32  70 SE8       29.88F
ROLLA          CLOUDY    39  32  76 SE9       29.84F WCI  33
LEBANON        PTCLDY    41  36  81 S9        29.83F
OSAGE BEACH    CLOUDY    43  34  70 S7        29.84S
SPRINGFIELD    CLOUDY    42  36  79 SE15      29.80F WCI  34
BRANSON        CLOUDY    41  37  87 E10       29.81F WCI  35
NEVADA         CLOUDY    43  37  81 S14       29.77F
JOPLIN         CLOUDY    44  39  82 SE12      29.76F
WEST PLAINS    CLOUDY    40  33  76 E5        29.87F

$$

IAZ060-094-KSZ022-034>040-054-083-096-NEZ052-066-093-220700-
...KANSAS...SOUTHEAST NEBRASKA AND IOWA...

CITY           SKY/WX    TMP DP  RH WIND       PRES   REMARKS
TOPEKA         CLOUDY    46  41  82 S13       29.71F
6HR MIN TEMP:  46; 6HR MAX TEMP:  47;

MANHATTAN      CLOUDY    44  42  93 S13       29.66S FOG
EMPORIA        CLOUDY    43  41  93 SE15      29.67F
CHANUTE        CLOUDY    44  42  93 SE17G24   29.72F
WICHITA        LGT RAIN  45  42  89 S13       29.63F FOG
OMAHA          DRIZZLE   43  42  97 S17       29.65F FOG
LINCOLN        CLOUDY    44  42  93 S15       29.62F
FALLS CITY     CLOUDY    43  41  93 SE12      29.68F
LAMONI         CLOUDY    40  38  93 S12G20    29.75F WCI  33
DES MOINES     LGT RAIN  43  38  82 S18G25    29.76S WCI  35

$$



USA.gov is the U.S. government's official web portal to all federal, state and local government web resources and services.